TimeMST,TemperatureF,Dew PointF,Humidity,Sea Level PressureIn,VisibilityMPH,Wind Direction,Wind SpeedMPH,Gust SpeedMPH,PrecipitationIn,Events,Conditions,WindDirDegrees,DateUTC
12:15 AM,32.0,30.2,93,30.44,10.0,Calm,Calm,-,N/A,,Overcast,0,2013-03-01 07:15:00
12:35 AM,32.0,30.2,93,30.44,10.0,Calm,Calm,-,N/A,,Overcast,0,2013-03-01 07:35:00
12:55 AM,32.0,30.2,93,30.44,7.0,SSE,3.5,-,N/A,,Overcast,160,2013-03-01 07:55:00
1:15 AM,32.0,30.2,93,30.45,10.0,SSE,3.5,-,N/A,,Overcast,150,2013-03-01 08:15:00
1:35 AM,32.0,30.2,93,30.45,10.0,Calm,Calm,-,N/A,,Overcast,0,2013-03-01 08:35:00
1:55 AM,32.0,30.2,93,30.46,7.0,Calm,Calm,-,N/A,,Overcast,0,2013-03-01 08:55:00
2:15 AM,32.0,30.2,93,30.46,7.0,Calm,Calm,-,N/A,,Overcast,0,2013-03-01 09:15:00
2:35 AM,32.0,30.2,93,30.47,7.0,Calm,Calm,-,N/A,,Overcast,0,2013-03-01 09:35:00
2:55 AM,32.0,30.2,93,30.46,10.0,Calm,Calm,-,N/A,,Overcast,0,2013-03-01 09:55:00
3:15 AM,32.0,30.2,93,30.47,7.0,Calm,Calm,-,N/A,,Overcast,0,2013-03-01 10:15:00
3:35 AM,32.0,30.2,93,30.46,7.0,Calm,Calm,-,N/A,,Overcast,0,2013-03-01 10:35:00
4:15 AM,32.0,30.2,93,30.47,7.0,NW,4.6,-,N/A,,Overcast,320,2013-03-01 11:15:00
4:35 AM,32.0,30.2,93,30.46,10.0,North,5.8,-,N/A,,Overcast,350,2013-03-01 11:35:00
4:55 AM,32.0,28.4,87,30.47,10.0,NNW,10.4,-,N/A,,Mostly Cloudy,330,2013-03-01 11:55:00
5:15 AM,30.2,28.4,93,30.46,10.0,North,5.8,-,N/A,,Mostly Cloudy,350,2013-03-01 12:15:00
5:35 AM,30.2,28.4,93,30.46,10.0,North,4.6,-,N/A,,Mostly Cloudy,360,2013-03-01 12:35:00
5:55 AM,30.2,28.4,93,30.47,10.0,NNW,5.8,-,N/A,,Scattered Clouds,340,2013-03-01 12:55:00
7:47 AM,26.6,26.6,100,30.48,10.0,NW,6.9,-,N/A,,Scattered Clouds,320,2013-03-01 14:47:00
8:47 AM,30.2,26.6,86,30.50,10.0,NW,6.9,-,N/A,,Partly Cloudy,320,2013-03-01 15:47:00
12:47 PM,37.4,33.8,87,30.48,10.0,SE,9.2,-,N/A,,Partly Cloudy,130,2013-03-01 19:47:00
2:47 PM,39.2,35.6,87,30.43,10.0,ESE,10.4,20.7,N/A,,Partly Cloudy,120,2013-03-01 21:47:00
3:50 PM,42.8,35.6,76,30.42,10.0,ESE,9.2,-,N/A,,Partly Cloudy,120,2013-03-01 22:50:00
4:50 PM,44.6,35.6,71,30.43,10.0,ESE,10.4,-,N/A,,Partly Cloudy,120,2013-03-01 23:50:00
5:47 PM,41.0,33.8,76,30.42,10.0,SSE,8.1,-,N/A,,Scattered Clouds,150,2013-03-02 00:47:00
6:50 PM,37.4,33.8,87,30.44,10.0,SE,6.9,-,N/A,,Partly Cloudy,130,2013-03-02 01:50:00
7:47 PM,39.2,33.8,81,30.45,10.0,East,3.5,-,N/A,,Clear,90,2013-03-02 02:47:00
8:47 PM,35.6,32.0,87,30.46,10.0,Calm,Calm,-,N/A,,Clear,0,2013-03-02 03:47:00
9:47 PM,33.8,30.2,87,30.48,10.0,NW,3.5,-,N/A,,Clear,310,2013-03-02 04:47:00
10:15 PM,33.8,32.0,93,30.47,10.0,WNW,5.8,-,N/A,,Clear,300,2013-03-02 05:15:00
10:35 PM,32.0,32.0,100,30.48,10.0,NW,6.9,-,N/A,,Clear,310,2013-03-02 05:35:00
10:47 PM,33.8,30.2,87,30.48,10.0,West,9.2,-,N/A,,Clear,280,2013-03-02 05:47:00
10:55 PM,32.0,32.0,100,30.48,10.0,WNW,9.2,-,N/A,,Clear,300,2013-03-02 05:55:00
11:15 PM,33.8,32.0,93,30.48,10.0,NW,8.1,-,N/A,,Clear,310,2013-03-02 06:15:00
11:35 PM,32.0,30.2,93,30.48,10.0,NW,6.9,-,N/A,,Clear,310,2013-03-02 06:35:00
11:55 PM,32.0,30.2,93,30.48,10.0,NW,8.1,-,N/A,,Clear,310,2013-03-02 06:55:00